#datetime,building,power
2022-05-04T00:00:00,brk,12.85
2022-05-04T00:01:00,brk,12.81
2022-05-04T00:02:00,brk,12.87
2022-05-04T00:03:00,brk,12.79
2022-05-04T00:04:00,brk,12.97
2022-05-04T00:05:00,brk,12.95
2022-05-04T00:06:00,brk,12.91
2022-05-04T00:07:00,brk,12.97
2022-05-04T00:08:00,brk,13.02
2022-05-04T00:09:00,brk,13.00
2022-05-04T00:10:00,brk,12.88
2022-05-04T00:11:00,brk,12.88
2022-05-04T00:12:00,brk,12.97
2022-05-04T00:13:00,brk,13.06
2022-05-04T00:14:00,brk,13.07
2022-05-04T00:15:00,brk,13.10
2022-05-04T00:16:00,brk,14.04
2022-05-04T00:17:00,brk,14.01
2022-05-04T00:18:00,brk,13.96
2022-05-04T00:19:00,brk,14.04
2022-05-04T00:20:00,brk,13.93
2022-05-04T00:21:00,brk,13.93
2022-05-04T00:22:00,brk,13.87
2022-05-04T00:23:00,brk,13.84
2022-05-04T00:24:00,brk,13.79
2022-05-04T00:25:00,brk,13.76
2022-05-04T00:26:00,brk,13.77
2022-05-04T00:27:00,brk,13.70
2022-05-04T00:28:00,brk,13.66
2022-05-04T00:29:00,brk,13.60
2022-05-04T00:30:00,brk,14.44
2022-05-04T00:31:00,brk,14.80
2022-05-04T00:32:00,brk,12.75
2022-05-04T00:33:00,brk,12.72
2022-05-04T00:34:00,brk,13.21
2022-05-04T00:35:00,brk,12.80
2022-05-04T00:36:00,brk,13.79
2022-05-04T00:37:00,brk,12.61
2022-05-04T00:38:00,brk,12.60
2022-05-04T00:39:00,brk,12.54
2022-05-04T00:40:00,brk,12.55
2022-05-04T00:41:00,brk,12.57
2022-05-04T00:42:00,brk,12.58
2022-05-04T00:43:00,brk,12.64
2022-05-04T00:44:00,brk,12.54
2022-05-04T00:45:00,brk,12.51
2022-05-04T00:46:00,brk,12.50
2022-05-04T00:47:00,brk,12.74
2022-05-04T00:48:00,brk,12.69
2022-05-04T00:49:00,brk,12.58
2022-05-04T00:50:00,brk,12.63
2022-05-04T00:51:00,brk,12.55
2022-05-04T00:52:00,brk,12.55
2022-05-04T00:53:00,brk,12.52
2022-05-04T00:54:00,brk,12.46
2022-05-04T00:55:00,brk,12.47
2022-05-04T00:56:00,brk,12.40
2022-05-04T00:57:00,brk,12.33
2022-05-04T00:58:00,brk,12.51
2022-05-04T00:59:00,brk,12.47
2022-05-04T01:00:00,brk,12.47
2022-05-04T01:01:00,brk,12.45
2022-05-04T01:02:00,brk,12.48
2022-05-04T01:03:00,brk,12.50
2022-05-04T01:04:00,brk,12.46
2022-05-04T01:05:00,brk,12.46
2022-05-04T01:06:00,brk,12.44
2022-05-04T01:07:00,brk,12.38
2022-05-04T01:08:00,brk,12.39
2022-05-04T01:09:00,brk,12.42
2022-05-04T01:10:00,brk,12.43
2022-05-04T01:11:00,brk,12.38
2022-05-04T01:12:00,brk,12.36
2022-05-04T01:13:00,brk,12.32
2022-05-04T01:14:00,brk,12.35
2022-05-04T01:15:00,brk,12.49
2022-05-04T01:16:00,brk,12.53
2022-05-04T01:17:00,brk,12.46
2022-05-04T01:18:00,brk,12.55
2022-05-04T01:19:00,brk,12.54
2022-05-04T01:20:00,brk,13.60
2022-05-04T01:21:00,brk,13.66
2022-05-04T01:22:00,brk,13.82
2022-05-04T01:23:00,brk,13.50
2022-05-04T01:24:00,brk,13.73
2022-05-04T01:25:00,brk,13.60
2022-05-04T01:26:00,brk,12.45
2022-05-04T01:27:00,brk,13.52
2022-05-04T01:28:00,brk,13.63
2022-05-04T01:29:00,brk,12.46
2022-05-04T01:30:00,brk,12.46
2022-05-04T01:31:00,brk,13.69
2022-05-04T01:32:00,brk,12.73
2022-05-04T01:33:00,brk,12.64
2022-05-04T01:34:00,brk,12.63
2022-05-04T01:35:00,brk,12.69
2022-05-04T01:36:00,brk,12.64
2022-05-04T01:37:00,brk,12.56
2022-05-04T01:38:00,brk,12.55
2022-05-04T01:39:00,brk,12.49
2022-05-04T01:40:00,brk,12.38
2022-05-04T01:41:00,brk,12.36
2022-05-04T01:42:00,brk,12.35
2022-05-04T01:43:00,brk,12.36
2022-05-04T01:44:00,brk,12.52
2022-05-04T01:45:00,brk,12.51
2022-05-04T01:46:00,brk,12.57
2022-05-04T01:47:00,brk,12.26
2022-05-04T01:48:00,brk,12.23
2022-05-04T01:49:00,brk,12.26
2022-05-04T01:50:00,brk,12.26
2022-05-04T01:51:00,brk,12.29
2022-05-04T01:52:00,brk,12.31
2022-05-04T01:53:00,brk,12.27
2022-05-04T01:54:00,brk,12.31
2022-05-04T01:55:00,brk,12.77
2022-05-04T01:56:00,brk,12.39
2022-05-04T01:57:00,brk,12.38
2022-05-04T01:58:00,brk,12.28
2022-05-04T01:59:00,brk,12.34
2022-05-04T02:00:00,brk,12.33
2022-05-04T02:01:00,brk,12.33
2022-05-04T02:02:00,brk,12.28
2022-05-04T02:03:00,brk,12.27
2022-05-04T02:04:00,brk,12.31
2022-05-04T02:05:00,brk,12.29
2022-05-04T02:06:00,brk,12.25
2022-05-04T02:07:00,brk,12.37
2022-05-04T02:08:00,brk,12.36
2022-05-04T02:09:00,brk,12.32
2022-05-04T02:10:00,brk,12.35
2022-05-04T02:11:00,brk,12.42
2022-05-04T02:12:00,brk,12.37
2022-05-04T02:13:00,brk,12.47
2022-05-04T02:14:00,brk,12.42
2022-05-04T02:15:00,brk,12.57
2022-05-04T02:16:00,brk,12.64
2022-05-04T02:17:00,brk,12.55
2022-05-04T02:18:00,brk,12.51
2022-05-04T02:19:00,brk,12.56
2022-05-04T02:20:00,brk,12.52
2022-05-04T02:21:00,brk,12.52
2022-05-04T02:22:00,brk,12.51
2022-05-04T02:23:00,brk,12.36
2022-05-04T02:24:00,brk,12.37
2022-05-04T02:25:00,brk,12.31
2022-05-04T02:26:00,brk,12.24
2022-05-04T02:27:00,brk,12.36
2022-05-04T02:28:00,brk,12.24
2022-05-04T02:29:00,brk,12.23
2022-05-04T02:30:00,brk,12.44
2022-05-04T02:31:00,brk,12.53
2022-05-04T02:32:00,brk,12.47
2022-05-04T02:33:00,brk,12.59
2022-05-04T02:34:00,brk,12.48
2022-05-04T02:35:00,brk,12.52
2022-05-04T02:36:00,brk,12.50
2022-05-04T02:37:00,brk,12.50
2022-05-04T02:38:00,brk,12.60
2022-05-04T02:39:00,brk,12.57
2022-05-04T02:40:00,brk,12.54
2022-05-04T02:41:00,brk,12.58
2022-05-04T02:42:00,brk,12.52
2022-05-04T02:43:00,brk,13.23
2022-05-04T02:44:00,brk,12.60
2022-05-04T02:45:00,brk,12.50
2022-05-04T02:46:00,brk,12.51
2022-05-04T02:47:00,brk,12.47
2022-05-04T02:48:00,brk,12.40
2022-05-04T02:49:00,brk,12.37
2022-05-04T02:50:00,brk,12.44
2022-05-04T02:51:00,brk,12.41
2022-05-04T02:52:00,brk,12.59
2022-05-04T02:53:00,brk,12.55
2022-05-04T02:54:00,brk,12.50
2022-05-04T02:55:00,brk,12.51
2022-05-04T02:56:00,brk,12.49
2022-05-04T02:57:00,brk,12.38
2022-05-04T02:58:00,brk,12.45
2022-05-04T02:59:00,brk,12.52
2022-05-04T03:00:00,brk,12.38
2022-05-04T03:01:00,brk,12.33
2022-05-04T03:02:00,brk,12.30
2022-05-04T03:03:00,brk,12.31
2022-05-04T03:04:00,brk,12.30
2022-05-04T03:05:00,brk,12.24
2022-05-04T03:06:00,brk,12.34
2022-05-04T03:07:00,brk,12.34
2022-05-04T03:08:00,brk,12.42
2022-05-04T03:09:00,brk,12.41
2022-05-04T03:10:00,brk,12.37
2022-05-04T03:11:00,brk,12.45
2022-05-04T03:12:00,brk,12.48
2022-05-04T03:13:00,brk,12.51
2022-05-04T03:14:00,brk,12.32
2022-05-04T03:15:00,brk,12.33
2022-05-04T03:16:00,brk,12.40
2022-05-04T03:17:00,brk,12.56
2022-05-04T03:18:00,brk,12.53
2022-05-04T03:19:00,brk,12.56
2022-05-04T03:20:00,brk,12.42
2022-05-04T03:21:00,brk,12.33
2022-05-04T03:22:00,brk,12.79
2022-05-04T03:23:00,brk,12.40
2022-05-04T03:24:00,brk,12.38
2022-05-04T03:25:00,brk,12.38
2022-05-04T03:26:00,brk,12.42
2022-05-04T03:27:00,brk,12.45
2022-05-04T03:28:00,brk,12.44
2022-05-04T03:29:00,brk,12.45
2022-05-04T03:30:00,brk,12.47
2022-05-04T03:31:00,brk,12.47
2022-05-04T03:32:00,brk,12.45
2022-05-04T03:33:00,brk,12.39
2022-05-04T03:34:00,brk,12.40
2022-05-04T03:35:00,brk,12.21
2022-05-04T03:36:00,brk,12.23
2022-05-04T03:37:00,brk,12.25
2022-05-04T03:38:00,brk,12.25
2022-05-04T03:39:00,brk,12.16
2022-05-04T03:40:00,brk,12.25
2022-05-04T03:41:00,brk,12.30
2022-05-04T03:42:00,brk,12.24
2022-05-04T03:43:00,brk,12.24
2022-05-04T03:44:00,brk,12.29
2022-05-04T03:45:00,brk,12.30
2022-05-04T03:46:00,brk,12.29
2022-05-04T03:47:00,brk,12.18
2022-05-04T03:48:00,brk,12.20
2022-05-04T03:49:00,brk,12.18
2022-05-04T03:50:00,brk,12.19
2022-05-04T03:51:00,brk,12.20
2022-05-04T03:52:00,brk,12.25
2022-05-04T03:53:00,brk,12.18
2022-05-04T03:54:00,brk,12.21
2022-05-04T03:55:00,brk,12.20
2022-05-04T03:56:00,brk,12.26
2022-05-04T03:57:00,brk,12.32
2022-05-04T03:58:00,brk,12.40
2022-05-04T03:59:00,brk,12.39
2022-05-04T04:00:00,brk,12.38
2022-05-04T04:01:00,brk,12.36
2022-05-04T04:02:00,brk,12.44
2022-05-04T04:03:00,brk,12.46
2022-05-04T04:04:00,brk,12.52
2022-05-04T04:05:00,brk,12.50
2022-05-04T04:06:00,brk,12.35
2022-05-04T04:07:00,brk,12.38
2022-05-04T04:08:00,brk,12.32
2022-05-04T04:09:00,brk,12.33
2022-05-04T04:10:00,brk,12.31
2022-05-04T04:11:00,brk,12.41
2022-05-04T04:12:00,brk,12.43
2022-05-04T04:13:00,brk,12.34
2022-05-04T04:14:00,brk,12.31
2022-05-04T04:15:00,brk,12.20
2022-05-04T04:16:00,brk,12.30
2022-05-04T04:17:00,brk,12.18
2022-05-04T04:18:00,brk,12.16
2022-05-04T04:19:00,brk,12.14
2022-05-04T04:20:00,brk,12.24
2022-05-04T04:21:00,brk,12.24
2022-05-04T04:22:00,brk,12.25
2022-05-04T04:23:00,brk,12.35
2022-05-04T04:24:00,brk,12.44
2022-05-04T04:25:00,brk,12.35
2022-05-04T04:26:00,brk,12.31
2022-05-04T04:27:00,brk,12.28
2022-05-04T04:28:00,brk,12.21
2022-05-04T04:29:00,brk,12.25
2022-05-04T04:30:00,brk,12.31
2022-05-04T04:31:00,brk,12.25
2022-05-04T04:32:00,brk,12.29
2022-05-04T04:33:00,brk,12.27
2022-05-04T04:34:00,brk,12.13
2022-05-04T04:35:00,brk,12.15
2022-05-04T04:36:00,brk,12.20
2022-05-04T04:37:00,brk,12.12
2022-05-04T04:38:00,brk,12.18
2022-05-04T04:39:00,brk,12.18
2022-05-04T04:40:00,brk,12.11
2022-05-04T04:41:00,brk,12.06
2022-05-04T04:42:00,brk,12.07
2022-05-04T04:43:00,brk,12.03
2022-05-04T04:44:00,brk,12.18
2022-05-04T04:45:00,brk,12.19
2022-05-04T04:46:00,brk,12.21
2022-05-04T04:47:00,brk,12.42
2022-05-04T04:48:00,brk,12.46
2022-05-04T04:49:00,brk,12.58
2022-05-04T04:50:00,brk,12.52
2022-05-04T04:51:00,brk,12.46
2022-05-04T04:52:00,brk,12.45
2022-05-04T04:53:00,brk,12.42
2022-05-04T04:54:00,brk,12.40
2022-05-04T04:55:00,brk,12.36
2022-05-04T04:56:00,brk,12.43
2022-05-04T04:57:00,brk,12.42
2022-05-04T04:58:00,brk,12.48
2022-05-04T04:59:00,brk,12.48
2022-05-04T05:00:00,brk,12.50
2022-05-04T05:01:00,brk,12.46
2022-05-04T05:02:00,brk,12.49
2022-05-04T05:03:00,brk,12.44
2022-05-04T05:04:00,brk,12.27
2022-05-04T05:05:00,brk,12.27
2022-05-04T05:06:00,brk,12.63
2022-05-04T05:07:00,brk,12.31
2022-05-04T05:08:00,brk,12.48
2022-05-04T05:09:00,brk,12.43
2022-05-04T05:10:00,brk,12.31
2022-05-04T05:11:00,brk,12.36
2022-05-04T05:12:00,brk,12.42
2022-05-04T05:13:00,brk,12.38
2022-05-04T05:14:00,brk,12.29
2022-05-04T05:15:00,brk,12.26
2022-05-04T05:16:00,brk,12.23
2022-05-04T05:17:00,brk,12.28
2022-05-04T05:18:00,brk,12.27
2022-05-04T05:19:00,brk,12.28
2022-05-04T05:20:00,brk,12.21
2022-05-04T05:21:00,brk,12.20
2022-05-04T05:22:00,brk,12.28
2022-05-04T05:23:00,brk,12.23
2022-05-04T05:24:00,brk,12.24
2022-05-04T05:25:00,brk,12.20
2022-05-04T05:26:00,brk,12.15
2022-05-04T05:27:00,brk,19.32
2022-05-04T05:28:00,brk,19.41
2022-05-04T05:29:00,brk,19.42
2022-05-04T05:30:00,brk,19.29
2022-05-04T05:31:00,brk,19.31
2022-05-04T05:32:00,brk,19.37
2022-05-04T05:33:00,brk,18.71
2022-05-04T05:34:00,brk,18.82
2022-05-04T05:35:00,brk,18.82
2022-05-04T05:36:00,brk,18.80
2022-05-04T05:37:00,brk,18.83
2022-05-04T05:38:00,brk,18.78
2022-05-04T05:39:00,brk,18.74
2022-05-04T05:40:00,brk,18.79
2022-05-04T05:41:00,brk,18.86
2022-05-04T05:42:00,brk,18.95
2022-05-04T05:43:00,brk,18.90
2022-05-04T05:44:00,brk,18.86
2022-05-04T05:45:00,brk,18.85
2022-05-04T05:46:00,brk,18.86
2022-05-04T05:47:00,brk,18.73
2022-05-04T05:48:00,brk,18.67
2022-05-04T05:49:00,brk,18.67
2022-05-04T05:50:00,brk,18.60
2022-05-04T05:51:00,brk,18.59
2022-05-04T05:52:00,brk,18.90
2022-05-04T05:53:00,brk,18.88
2022-05-04T05:54:00,brk,18.97
2022-05-04T05:55:00,brk,18.98
2022-05-04T05:56:00,brk,19.04
2022-05-04T05:57:00,brk,18.99
2022-05-04T05:58:00,brk,11.88
2022-05-04T05:59:00,brk,11.86
2022-05-04T06:00:00,brk,11.84
2022-05-04T06:01:00,brk,11.84
2022-05-04T06:02:00,brk,11.78
2022-05-04T06:03:00,brk,11.78
2022-05-04T06:04:00,brk,11.90
2022-05-04T06:05:00,brk,11.85
2022-05-04T06:06:00,brk,11.84
2022-05-04T06:07:00,brk,11.79
2022-05-04T06:08:00,brk,12.40
2022-05-04T06:09:00,brk,11.87
2022-05-04T06:10:00,brk,11.84
2022-05-04T06:11:00,brk,11.83
2022-05-04T06:12:00,brk,11.80
2022-05-04T06:13:00,brk,11.58
2022-05-04T06:14:00,brk,11.72
2022-05-04T06:15:00,brk,11.86
2022-05-04T06:16:00,brk,11.74
2022-05-04T06:17:00,brk,11.74
2022-05-04T06:18:00,brk,12.75
2022-05-04T06:19:00,brk,12.85
2022-05-04T06:20:00,brk,12.91
2022-05-04T06:21:00,brk,12.84
2022-05-04T06:22:00,brk,12.75
2022-05-04T06:23:00,brk,12.76
2022-05-04T06:24:00,brk,12.84
2022-05-04T06:25:00,brk,12.11
2022-05-04T06:26:00,brk,12.10
2022-05-04T06:27:00,brk,12.01
2022-05-04T06:28:00,brk,12.67
2022-05-04T06:29:00,brk,12.09
2022-05-04T06:30:00,brk,12.27
2022-05-04T06:31:00,brk,12.62
2022-05-04T06:32:00,brk,12.84
2022-05-04T06:33:00,brk,12.17
2022-05-04T06:34:00,brk,12.24
2022-05-04T06:35:00,brk,12.07
2022-05-04T06:36:00,brk,12.08
2022-05-04T06:37:00,brk,12.16
2022-05-04T06:38:00,brk,12.16
2022-05-04T06:39:00,brk,12.25
2022-05-04T06:40:00,brk,12.25
2022-05-04T06:41:00,brk,12.15
2022-05-04T06:42:00,brk,12.14
2022-05-04T06:43:00,brk,12.33
2022-05-04T06:44:00,brk,12.77
2022-05-04T06:45:00,brk,13.18
2022-05-04T06:46:00,brk,12.19
2022-05-04T06:47:00,brk,12.20
2022-05-04T06:48:00,brk,12.19
2022-05-04T06:49:00,brk,12.11
2022-05-04T06:50:00,brk,12.03
2022-05-04T06:51:00,brk,12.22
2022-05-04T06:52:00,brk,12.21
2022-05-04T06:53:00,brk,12.27
2022-05-04T06:54:00,brk,12.28
2022-05-04T06:55:00,brk,12.23
2022-05-04T06:56:00,brk,12.37
2022-05-04T06:57:00,brk,12.38
2022-05-04T06:58:00,brk,12.90
2022-05-04T06:59:00,brk,12.88
2022-05-04T07:00:00,brk,13.08
2022-05-04T07:01:00,brk,12.39
2022-05-04T07:02:00,brk,12.41
2022-05-04T07:03:00,brk,12.37
2022-05-04T07:04:00,brk,12.19
2022-05-04T07:05:00,brk,12.12
2022-05-04T07:06:00,brk,12.14
2022-05-04T07:07:00,brk,12.20
2022-05-04T07:08:00,brk,12.16
2022-05-04T07:09:00,brk,12.19
2022-05-04T07:10:00,brk,12.09
2022-05-04T07:11:00,brk,12.04
2022-05-04T07:12:00,brk,11.95
2022-05-04T07:13:00,brk,11.88
2022-05-04T07:14:00,brk,12.55
2022-05-04T07:15:00,brk,12.60
2022-05-04T07:16:00,brk,11.92
2022-05-04T07:17:00,brk,11.99
2022-05-04T07:18:00,brk,12.02
2022-05-04T07:19:00,brk,11.95
2022-05-04T07:20:00,brk,11.95
2022-05-04T07:21:00,brk,11.99
2022-05-04T07:22:00,brk,12.07
2022-05-04T07:23:00,brk,12.13
2022-05-04T07:24:00,brk,12.15
2022-05-04T07:25:00,brk,12.13
2022-05-04T07:26:00,brk,12.06
2022-05-04T07:27:00,brk,12.13
2022-05-04T07:28:00,brk,12.12
2022-05-04T07:29:00,brk,12.85
2022-05-04T07:30:00,brk,12.85
2022-05-04T07:31:00,brk,12.11
2022-05-04T07:32:00,brk,12.19
2022-05-04T07:33:00,brk,12.13
2022-05-04T07:34:00,brk,12.00
2022-05-04T07:35:00,brk,11.92
2022-05-04T07:36:00,brk,11.99
2022-05-04T07:37:00,brk,11.96
2022-05-04T07:38:00,brk,12.11
2022-05-04T07:39:00,brk,12.30
2022-05-04T07:40:00,brk,12.22
2022-05-04T07:41:00,brk,12.31
2022-05-04T07:42:00,brk,12.24
2022-05-04T07:43:00,brk,12.35
2022-05-04T07:44:00,brk,12.28
2022-05-04T07:45:00,brk,12.89
2022-05-04T07:46:00,brk,13.01
2022-05-04T07:47:00,brk,12.95
2022-05-04T07:48:00,brk,12.42
2022-05-04T07:49:00,brk,12.42
2022-05-04T07:50:00,brk,12.42
2022-05-04T07:51:00,brk,12.46
2022-05-04T07:52:00,brk,12.53
2022-05-04T07:53:00,brk,12.54
2022-05-04T07:54:00,brk,12.57
2022-05-04T07:55:00,brk,12.55
2022-05-04T07:56:00,brk,12.79
2022-05-04T07:57:00,brk,12.59
2022-05-04T07:58:00,brk,12.75
2022-05-04T07:59:00,brk,12.78
2022-05-04T08:00:00,brk,12.53
2022-05-04T08:01:00,brk,12.94
2022-05-04T08:02:00,brk,13.01
2022-05-04T08:03:00,brk,13.29
2022-05-04T08:04:00,brk,12.72
2022-05-04T08:05:00,brk,12.71
2022-05-04T08:06:00,brk,12.74
2022-05-04T08:07:00,brk,13.85
2022-05-04T08:08:00,brk,13.69
2022-05-04T08:09:00,brk,12.02
2022-05-04T08:10:00,brk,12.10
2022-05-04T08:11:00,brk,13.32
2022-05-04T08:12:00,brk,13.31
2022-05-04T08:13:00,brk,11.93
2022-05-04T08:14:00,brk,11.94
2022-05-04T08:15:00,brk,11.94
2022-05-04T08:16:00,brk,11.92
2022-05-04T08:17:00,brk,11.93
2022-05-04T08:18:00,brk,12.63
2022-05-04T08:19:00,brk,12.75
2022-05-04T08:20:00,brk,12.23
2022-05-04T08:21:00,brk,12.25
2022-05-04T08:22:00,brk,12.26
2022-05-04T08:23:00,brk,12.17
2022-05-04T08:24:00,brk,12.16
2022-05-04T08:25:00,brk,12.23
2022-05-04T08:26:00,brk,12.19
2022-05-04T08:27:00,brk,12.06
2022-05-04T08:28:00,brk,12.09
2022-05-04T08:29:00,brk,12.21
2022-05-04T08:30:00,brk,12.24
2022-05-04T08:31:00,brk,12.22
2022-05-04T08:32:00,brk,12.21
2022-05-04T08:33:00,brk,13.50
2022-05-04T08:34:00,brk,12.93
2022-05-04T08:35:00,brk,12.86
2022-05-04T08:36:00,brk,12.24
2022-05-04T08:37:00,brk,12.13
2022-05-04T08:38:00,brk,12.08
2022-05-04T08:39:00,brk,12.22
2022-05-04T08:40:00,brk,12.19
2022-05-04T08:41:00,brk,12.22
2022-05-04T08:42:00,brk,12.08
2022-05-04T08:43:00,brk,12.23
2022-05-04T08:44:00,brk,12.33
2022-05-04T08:45:00,brk,12.70
2022-05-04T08:46:00,brk,12.09
2022-05-04T08:47:00,brk,13.83
2022-05-04T08:48:00,brk,12.98
2022-05-04T08:49:00,brk,14.35
2022-05-04T08:50:00,brk,13.04
2022-05-04T08:51:00,brk,12.31
2022-05-04T08:52:00,brk,12.25
2022-05-04T08:53:00,brk,12.44
2022-05-04T08:54:00,brk,12.35
2022-05-04T08:55:00,brk,12.44
2022-05-04T08:56:00,brk,12.39
2022-05-04T08:57:00,brk,12.41
2022-05-04T08:58:00,brk,12.40
2022-05-04T08:59:00,brk,12.44
2022-05-04T09:00:00,brk,12.31
2022-05-04T09:01:00,brk,12.39
2022-05-04T09:02:00,brk,12.46
2022-05-04T09:03:00,brk,12.43
2022-05-04T09:04:00,brk,12.56
2022-05-04T09:05:00,brk,12.95
2022-05-04T09:06:00,brk,13.14
2022-05-04T09:07:00,brk,12.47
2022-05-04T09:08:00,brk,16.75
2022-05-04T09:09:00,brk,16.88
2022-05-04T09:10:00,brk,16.86
2022-05-04T09:11:00,brk,16.79
2022-05-04T09:12:00,brk,16.99
2022-05-04T09:13:00,brk,17.18
2022-05-04T09:14:00,brk,16.98
2022-05-04T09:15:00,brk,16.81
2022-05-04T09:16:00,brk,16.42
2022-05-04T09:17:00,brk,16.46
2022-05-04T09:18:00,brk,16.47
2022-05-04T09:19:00,brk,16.45
2022-05-04T09:20:00,brk,16.41
2022-05-04T09:21:00,brk,16.27
2022-05-04T09:22:00,brk,16.19
2022-05-04T09:23:00,brk,16.04
2022-05-04T09:24:00,brk,16.19
2022-05-04T09:25:00,brk,16.38
2022-05-04T09:26:00,brk,16.35
2022-05-04T09:27:00,brk,16.28
2022-05-04T09:28:00,brk,16.28
2022-05-04T09:29:00,brk,16.41
2022-05-04T09:30:00,brk,16.43
2022-05-04T09:31:00,brk,16.30
2022-05-04T09:32:00,brk,16.44
2022-05-04T09:33:00,brk,16.44
2022-05-04T09:34:00,brk,16.41
2022-05-04T09:35:00,brk,16.73
2022-05-04T09:36:00,brk,12.99
2022-05-04T09:37:00,brk,16.56
2022-05-04T09:38:00,brk,16.58
2022-05-04T09:39:00,brk,16.79
2022-05-04T09:40:00,brk,12.61
2022-05-04T09:41:00,brk,16.58
2022-05-04T09:42:00,brk,16.84
2022-05-04T09:43:00,brk,17.10
2022-05-04T09:44:00,brk,13.02
2022-05-04T09:45:00,brk,17.01
2022-05-04T09:46:00,brk,17.24
2022-05-04T09:47:00,brk,17.12
2022-05-04T09:48:00,brk,16.94
2022-05-04T09:49:00,brk,17.16
2022-05-04T09:50:00,brk,17.12
2022-05-04T09:51:00,brk,13.15
2022-05-04T09:52:00,brk,16.86
2022-05-04T09:53:00,brk,16.71
2022-05-04T09:54:00,brk,16.73
2022-05-04T09:55:00,brk,12.82
2022-05-04T09:56:00,brk,17.14
2022-05-04T09:57:00,brk,17.25
2022-05-04T09:58:00,brk,13.96
2022-05-04T09:59:00,brk,18.36
2022-05-04T10:00:00,brk,18.56
2022-05-04T10:01:00,brk,17.91
2022-05-04T10:02:00,brk,13.28
2022-05-04T10:03:00,brk,16.86
2022-05-04T10:04:00,brk,16.82
2022-05-04T10:05:00,brk,16.93
2022-05-04T10:06:00,brk,13.58
2022-05-04T10:07:00,brk,12.98
2022-05-04T10:08:00,brk,12.90
2022-05-04T10:09:00,brk,12.88
2022-05-04T10:10:00,brk,12.92
2022-05-04T10:11:00,brk,12.70
2022-05-04T10:12:00,brk,12.50
2022-05-04T10:13:00,brk,12.56
2022-05-04T10:14:00,brk,13.21
2022-05-04T10:15:00,brk,13.14
2022-05-04T10:16:00,brk,13.22
2022-05-04T10:17:00,brk,12.58
2022-05-04T10:18:00,brk,12.70
2022-05-04T10:19:00,brk,12.76
2022-05-04T10:20:00,brk,12.71
2022-05-04T10:21:00,brk,12.77
2022-05-04T10:22:00,brk,12.72
2022-05-04T10:23:00,brk,12.61
2022-05-04T10:24:00,brk,12.66
2022-05-04T10:25:00,brk,12.74
2022-05-04T10:26:00,brk,12.73
2022-05-04T10:27:00,brk,12.79
2022-05-04T10:28:00,brk,12.65
2022-05-04T10:29:00,brk,12.69
2022-05-04T10:30:00,brk,12.62
2022-05-04T10:31:00,brk,13.41
2022-05-04T10:32:00,brk,13.37
2022-05-04T10:33:00,brk,12.74
2022-05-04T10:34:00,brk,12.64
2022-05-04T10:35:00,brk,12.77
2022-05-04T10:36:00,brk,12.87
2022-05-04T10:37:00,brk,12.78
2022-05-04T10:38:00,brk,12.75
2022-05-04T10:39:00,brk,12.81
2022-05-04T10:40:00,brk,12.75
2022-05-04T10:41:00,brk,12.68
2022-05-04T10:42:00,brk,12.81
2022-05-04T10:43:00,brk,12.90
2022-05-04T10:44:00,brk,12.92
2022-05-04T10:45:00,brk,12.74
2022-05-04T10:46:00,brk,12.60
2022-05-04T10:47:00,brk,12.48
2022-05-04T10:48:00,brk,12.13
2022-05-04T10:49:00,brk,12.16
2022-05-04T10:50:00,brk,12.39
2022-05-04T10:51:00,brk,12.20
2022-05-04T10:52:00,brk,11.51
2022-05-04T10:53:00,brk,11.93
2022-05-04T10:54:00,brk,12.07
2022-05-04T10:55:00,brk,12.05
2022-05-04T10:56:00,brk,11.92
2022-05-04T10:57:00,brk,12.05
2022-05-04T10:58:00,brk,12.18
2022-05-04T10:59:00,brk,12.12
2022-05-04T11:00:00,brk,12.12
2022-05-04T11:01:00,brk,11.85
2022-05-04T11:02:00,brk,11.82
2022-05-04T11:03:00,brk,11.94
2022-05-04T11:04:00,brk,12.34
2022-05-04T11:05:00,brk,12.44
2022-05-04T11:06:00,brk,12.42
2022-05-04T11:07:00,brk,12.29
2022-05-04T11:08:00,brk,12.13
2022-05-04T11:09:00,brk,13.50
2022-05-04T11:10:00,brk,13.06
2022-05-04T11:11:00,brk,13.18
2022-05-04T11:12:00,brk,13.23
2022-05-04T11:13:00,brk,13.57
2022-05-04T11:14:00,brk,13.48
2022-05-04T11:15:00,brk,12.09
2022-05-04T11:16:00,brk,12.16
2022-05-04T11:17:00,brk,12.22
2022-05-04T11:18:00,brk,11.98
2022-05-04T11:19:00,brk,12.09
2022-05-04T11:20:00,brk,12.23
2022-05-04T11:21:00,brk,11.71
2022-05-04T11:22:00,brk,11.88
2022-05-04T11:23:00,brk,11.88
2022-05-04T11:24:00,brk,11.81
2022-05-04T11:25:00,brk,12.29
2022-05-04T11:26:00,brk,12.79
2022-05-04T11:27:00,brk,12.77
2022-05-04T11:28:00,brk,12.57
2022-05-04T11:29:00,brk,11.83
2022-05-04T11:30:00,brk,11.71
2022-05-04T11:31:00,brk,11.99
2022-05-04T11:32:00,brk,12.06
2022-05-04T11:33:00,brk,11.80
2022-05-04T11:34:00,brk,11.97
2022-05-04T11:35:00,brk,12.14
2022-05-04T11:36:00,brk,11.85
2022-05-04T11:37:00,brk,11.76
2022-05-04T11:38:00,brk,11.77
2022-05-04T11:39:00,brk,12.45
2022-05-04T11:40:00,brk,12.83
2022-05-04T11:41:00,brk,12.49
2022-05-04T11:42:00,brk,12.12
2022-05-04T11:43:00,brk,11.96
2022-05-04T11:44:00,brk,12.03
2022-05-04T11:45:00,brk,12.18
2022-05-04T11:46:00,brk,12.11
2022-05-04T11:47:00,brk,11.75
2022-05-04T11:48:00,brk,11.63
2022-05-04T11:49:00,brk,11.94
2022-05-04T11:50:00,brk,11.87
2022-05-04T11:51:00,brk,12.06
2022-05-04T11:52:00,brk,12.05
2022-05-04T11:53:00,brk,12.13
2022-05-04T11:54:00,brk,21.70
2022-05-04T11:55:00,brk,21.28
2022-05-04T11:56:00,brk,21.34
2022-05-04T11:57:00,brk,20.64
2022-05-04T11:58:00,brk,20.98
2022-05-04T11:59:00,brk,20.83
2022-05-04T12:00:00,brk,20.66
2022-05-04T12:01:00,brk,20.61
2022-05-04T12:02:00,brk,20.61
2022-05-04T12:03:00,brk,20.21
2022-05-04T12:04:00,brk,20.20
2022-05-04T12:05:00,brk,20.31
2022-05-04T12:06:00,brk,20.58
2022-05-04T12:07:00,brk,20.50
2022-05-04T12:08:00,brk,20.49
2022-05-04T12:09:00,brk,20.54
2022-05-04T12:10:00,brk,21.24
2022-05-04T12:11:00,brk,21.22
2022-05-04T12:12:00,brk,20.86
2022-05-04T12:13:00,brk,20.13
2022-05-04T12:14:00,brk,21.28
2022-05-04T12:15:00,brk,21.62
2022-05-04T12:16:00,brk,17.65
2022-05-04T12:17:00,brk,21.81
2022-05-04T12:18:00,brk,21.14
2022-05-04T12:19:00,brk,20.64
2022-05-04T12:20:00,brk,16.78
2022-05-04T12:21:00,brk,16.36
2022-05-04T12:22:00,brk,20.35
2022-05-04T12:23:00,brk,20.41
2022-05-04T12:24:00,brk,20.59
2022-05-04T12:25:00,brk,16.49
2022-05-04T12:26:00,brk,17.12
2022-05-04T12:27:00,brk,21.20
2022-05-04T12:28:00,brk,21.21
2022-05-04T12:29:00,brk,20.14
2022-05-04T12:30:00,brk,16.11
2022-05-04T12:31:00,brk,16.48
2022-05-04T12:32:00,brk,17.26
2022-05-04T12:33:00,brk,20.76
2022-05-04T12:34:00,brk,16.95
2022-05-04T12:35:00,brk,16.90
2022-05-04T12:36:00,brk,16.91
2022-05-04T12:37:00,brk,16.97
2022-05-04T12:38:00,brk,12.67
2022-05-04T12:39:00,brk,12.51
2022-05-04T12:40:00,brk,20.46
2022-05-04T12:41:00,brk,20.89
2022-05-04T12:42:00,brk,12.87
2022-05-04T12:43:00,brk,13.52
2022-05-04T12:44:00,brk,17.32
2022-05-04T12:45:00,brk,17.37
2022-05-04T12:46:00,brk,16.74
2022-05-04T12:47:00,brk,20.32
2022-05-04T12:48:00,brk,16.28
2022-05-04T12:49:00,brk,12.16
2022-05-04T12:50:00,brk,12.11
2022-05-04T12:51:00,brk,15.99
2022-05-04T12:52:00,brk,12.08
2022-05-04T12:53:00,brk,12.07
2022-05-04T12:54:00,brk,11.76
2022-05-04T12:55:00,brk,11.21
2022-05-04T12:56:00,brk,10.83
2022-05-04T12:57:00,brk,10.92
2022-05-04T12:58:00,brk,11.28
2022-05-04T12:59:00,brk,11.20
2022-05-04T13:00:00,brk,11.31
2022-05-04T13:01:00,brk,11.39
2022-05-04T13:02:00,brk,11.23
2022-05-04T13:03:00,brk,11.21
2022-05-04T13:04:00,brk,10.86
2022-05-04T13:05:00,brk,10.78
2022-05-04T13:06:00,brk,10.80
2022-05-04T13:07:00,brk,11.12
2022-05-04T13:08:00,brk,11.15
2022-05-04T13:09:00,brk,11.33
2022-05-04T13:10:00,brk,11.36
2022-05-04T13:11:00,brk,11.25
2022-05-04T13:12:00,brk,11.36
2022-05-04T13:13:00,brk,11.05
2022-05-04T13:14:00,brk,11.04
2022-05-04T13:15:00,brk,10.95
2022-05-04T13:16:00,brk,11.25
2022-05-04T13:17:00,brk,11.17
2022-05-04T13:18:00,brk,11.17